Weather History for KPRS - June, 2014

Change the Weather History Date:

Sunday, June 8, 2014

  Actual Average (KMRF) Record (KMRF)
Temperature  
Mean Temperature 91 °F -  
Max Temperature 103 °F 85 °F 102 °F (2011)
Min Temperature 78 °F 56 °F 53 °F (1999)
Cooling Degree Days 26    
Growing Degree Days 41 (Base 50)    
Moisture  
Dew Point 59 °F    
Average Humidity 39    
Maximum Humidity 60    
Minimum Humidity 14    
Precipitation  
Precipitation 0.00 in - - ()
Sea Level Pressure  
Sea Level Pressure 29.79 in    
Wind  
Wind Speed 10 mph (NE)    
Max Wind Speed 26 mph    
Max Gust Speed 25 mph    
Visibility 10 miles    
Events      
Averages and records for this station are not official NWS values.
T = Trace of Precipitation, MM = Missing Value Source: NWS Daily Summary

Daily Weather History Graph

Daily Weather History Graph

Search for Another Location

Airport or City:

Trip Planner

Search our weather history database for the weather conditions in past years. The results will help you decide how hot, cold, wet, or windy it might be!

Date:

Astronomy

Jun. 08, 2014 Rise Set
Actual Time 6:56 AM CDT 8:56 PM CDT
Civil Twilight 6:29 AM CDT 9:23 PM CDT
Nautical Twilight 5:56 AM CDT 9:56 PM CDT
Astronomical Twilight 5:21 AM CDT 10:31 PM CDT
Moon 4:35 PM CDT (6/8) 3:31 AM CDT (6/8)
Length of Visible Light 14h 54m
Length of Day
13h 59m
Waxing Gibbous, 77% of the Moon is Illuminated
Jun 8
Waxing Gibbous
Jun 12
Full
Jun 19
Last Quarter
Jun 27
New
Jul 5
First Quarter

Hourly Weather History & Observations

Time (CDT) Temp. Heat Index Dew Point Humidity Pressure Visibility Wind Dir Wind Speed Gust Speed Precip Events Conditions
12:15 AM 87.4 °F 86.9 °F 59.4 °F 39% 29.79 in 10.0 mi ENE 13.8 mph 20.7 mph N/A   Clear
12:35 AM 87.3 °F 86.7 °F 59.2 °F 39% 29.80 in 10.0 mi ENE 11.5 mph 21.9 mph N/A   Clear
12:55 AM 87.3 °F 86.7 °F 59.5 °F 39% 29.80 in 10.0 mi ENE 11.5 mph 18.4 mph N/A   Clear
1:15 AM 86.5 °F 86.1 °F 59.9 °F 40% 29.80 in 10.0 mi ENE 8.1 mph - N/A   Clear
1:35 AM 86.2 °F 85.9 °F 60.1 °F 41% 29.80 in 10.0 mi ENE 8.1 mph - N/A   Clear
1:55 AM 86.0 °F 85.7 °F 59.9 °F 41% 29.79 in 10.0 mi NE 9.2 mph - N/A   Clear
2:15 AM 85.3 °F 84.6 °F 58.6 °F 40% 29.79 in 10.0 mi NNE 6.9 mph - N/A   Clear
2:35 AM 84.7 °F 84.2 °F 58.6 °F 41% 29.79 in 10.0 mi NNE 6.9 mph - N/A   Clear
2:55 AM 84.7 °F 84.4 °F 59.2 °F 42% 29.79 in 10.0 mi NNE 5.8 mph - N/A   Clear
3:15 AM 84.6 °F 84.4 °F 59.9 °F 43% 29.79 in 10.0 mi NNE 10.4 mph - N/A   Clear
3:35 AM 84.2 °F 84.2 °F 60.1 °F 44% 29.79 in 10.0 mi NE 5.8 mph - N/A   Clear
3:55 AM 83.5 °F 83.6 °F 60.3 °F 45% 29.79 in 10.0 mi ENE 5.8 mph - N/A   Clear
4:15 AM 82.9 °F 83.3 °F 60.6 °F 47% 29.80 in 10.0 mi Calm Calm - N/A   Clear
4:35 AM 82.4 °F 82.9 °F 60.8 °F 48% 29.79 in 10.0 mi NE 8.1 mph - N/A   Clear
4:55 AM 82.4 °F 82.9 °F 60.8 °F 48% 29.79 in 10.0 mi NE 8.1 mph - N/A   Clear
5:15 AM 82.0 °F 82.5 °F 60.4 °F 48% 29.79 in 10.0 mi NE 6.9 mph - N/A   Clear
5:35 AM 81.5 °F 82.1 °F 60.8 °F 49% 29.79 in 10.0 mi NE 6.9 mph - N/A   Clear
5:55 AM 81.7 °F 82.3 °F 60.8 °F 49% 29.79 in 10.0 mi NNE 10.4 mph - N/A   Clear
6:15 AM 81.7 °F 82.3 °F 60.6 °F 49% 29.79 in 10.0 mi NNE 8.1 mph - N/A   Clear
6:35 AM 81.0 °F 81.6 °F 60.1 °F 49% 29.80 in 10.0 mi North - - N/A   Clear
6:55 AM 80.6 °F 81.2 °F 60.1 °F 49% 29.81 in 10.0 mi North 6.9 mph - N/A   Clear
7:15 AM 80.4 °F 81.2 °F 60.1 °F 50% 29.81 in 10.0 mi North 8.1 mph - N/A   Clear
7:35 AM 81.0 °F 81.6 °F 60.1 °F 49% 29.82 in 10.0 mi North 10.4 mph - N/A   Clear
7:55 AM 81.7 °F 82.2 °F 60.3 °F 48% 29.83 in 10.0 mi North 10.4 mph - N/A   Clear
8:15 AM 82.9 °F 83.2 °F 60.4 °F 46% 29.84 in 10.0 mi NNE 9.2 mph - N/A   Clear
8:35 AM 83.8 °F 84.1 °F 60.8 °F 46% 29.85 in 10.0 mi NNE 13.8 mph 17.3 mph N/A   Clear
8:55 AM 84.2 °F 84.6 °F 61.2 °F 46% 29.85 in 10.0 mi North - - N/A   Clear
9:35 AM 86.0 °F 86.3 °F 61.9 °F 44% 29.88 in 10.0 mi North - - N/A   Clear
9:55 AM 85.8 °F 86.1 °F 61.9 °F 44% 29.88 in 10.0 mi NNE 18.4 mph - N/A   Clear
10:15 AM 86.5 °F 87.0 °F 62.1 °F 44% 29.87 in 10.0 mi North - - N/A   Clear
10:35 AM 87.3 °F 87.7 °F 62.2 °F 43% 29.87 in 10.0 mi North - - N/A   Clear
10:55 AM 88.7 °F 89.1 °F 62.2 °F 41% 29.87 in 10.0 mi ENE 12.7 mph - N/A   Clear
11:15 AM 90.0 °F 90.3 °F 61.9 °F 39% 29.87 in 10.0 mi ENE 10.4 mph - N/A   Clear
11:35 AM 91.9 °F 91.8 °F 60.6 °F 35% 29.87 in 10.0 mi NE 8.1 mph - N/A   Clear
12:15 PM 93.0 °F 92.3 °F 59.4 °F 32% 29.86 in 10.0 mi NNE 8.1 mph - N/A   Clear
12:35 PM 93.7 °F 93.0 °F 59.2 °F 31% 29.86 in 10.0 mi ENE 5.8 mph - N/A   Clear
1:15 PM 95.0 °F 94.4 °F 59.0 °F 30% 29.84 in 10.0 mi South 6.9 mph - N/A   Clear
1:35 PM 96.1 °F 95.6 °F 58.8 °F 29% 29.82 in 10.0 mi North 3.5 mph - N/A   Clear
1:55 PM 97.2 °F 96.4 °F 58.1 °F 27% 29.81 in 10.0 mi SE 11.5 mph 17.3 mph N/A   Scattered Clouds
2:15 PM 97.3 °F 96.2 °F 57.0 °F 26% 29.80 in 10.0 mi SW 5.8 mph - N/A   Scattered Clouds
2:35 PM 98.4 °F 96.9 °F 56.3 °F 24% 29.79 in 10.0 mi South 8.1 mph - N/A   Scattered Clouds
2:50 PM 98.4 °F 96.9 °F 55.6 °F 24% 29.78 in 10.0 mi SE 11.5 mph 18.4 mph N/A   Scattered Clouds
3:10 PM 98.6 °F 96.8 °F 55.0 °F 23% 29.77 in 10.0 mi SSE 6.9 mph - N/A   Clear
3:35 PM 98.8 °F 97.0 °F 54.7 °F 23% 29.76 in 10.0 mi ENE 6.9 mph - N/A   Clear
3:55 PM 99.9 °F - 50.7 °F 19% 29.75 in 10.0 mi SSE 6.9 mph - N/A   Clear
4:15 PM 99.7 °F - 49.5 °F 18% 29.73 in 10.0 mi SE 4.6 mph - N/A   Clear
4:35 PM 101.8 °F - 49.3 °F 17% 29.72 in 10.0 mi SSW 3.5 mph - N/A   Clear
4:55 PM 101.8 °F - 49.1 °F 17% 29.71 in 10.0 mi SSW 9.2 mph 17.3 mph N/A   Clear
5:15 PM 100.8 °F - 49.1 °F 17% 29.70 in 10.0 mi ENE 3.5 mph - N/A   Clear
5:35 PM 101.7 °F - 48.7 °F 17% 29.70 in 10.0 mi NW 5.8 mph - N/A   Clear
5:55 PM 102.6 °F - 48.2 °F 16% 29.69 in 10.0 mi WSW 10.4 mph - N/A   Clear
6:15 PM 103.3 °F - 47.1 °F 15% 29.68 in 10.0 mi WNW 9.2 mph - N/A   Clear
6:35 PM 101.8 °F - 46.8 °F 15% 29.67 in 10.0 mi WNW 6.9 mph - N/A   Clear
6:55 PM 101.8 °F - 45.0 °F 14% 29.67 in 10.0 mi West 8.1 mph - N/A   Clear
7:15 PM 92.3 °F 93.1 °F 62.4 °F 37% 29.68 in 10.0 mi North - - N/A   Clear
7:35 PM 87.1 °F 86.7 °F 60.3 °F 40% 29.69 in 10.0 mi North - - N/A   Clear
7:55 PM 86.2 °F 85.2 °F 58.1 °F 38% 29.70 in 10.0 mi North - - N/A   Clear
8:15 PM 86.9 °F 86.3 °F 59.4 °F 39% 29.71 in 10.0 mi North - - N/A   Clear
8:35 PM 83.3 °F 84.4 °F 63.7 °F 51% 29.72 in 10.0 mi North - - N/A   Clear
8:55 PM 82.0 °F 83.4 °F 63.9 °F 54% 29.73 in 10.0 mi NNE 26.5 mph - N/A   Clear
9:15 PM 81.5 °F 82.9 °F 63.9 °F 55% 29.74 in 10.0 mi North - - N/A   Clear
9:35 PM 80.8 °F 82.4 °F 64.4 °F 57% 29.77 in 10.0 mi North - - N/A   Clear
9:55 PM 80.4 °F 82.1 °F 64.6 °F 58% 29.78 in 10.0 mi NE 16.1 mph 21.9 mph N/A   Clear
10:15 PM 80.2 °F 81.9 °F 64.4 °F 58% 29.79 in 10.0 mi NE 10.4 mph - N/A   Clear
10:35 PM 80.2 °F 81.9 °F 64.4 °F 58% 29.80 in 10.0 mi NNE 15.0 mph - N/A   Clear
10:55 PM 79.9 °F - 63.9 °F 58% 29.81 in 10.0 mi NNE 15.0 mph - N/A   Clear
11:15 PM 79.7 °F - 63.9 °F 58% 29.82 in 10.0 mi NNE 13.8 mph 20.7 mph N/A   Clear
11:35 PM 79.2 °F - 64.4 °F 60% 29.83 in 10.0 mi NE 13.8 mph 20.7 mph N/A   Clear
11:55 PM 78.8 °F - 64.0 °F 60% 29.84 in 10.0 mi NNE 15.0 mph 25.3 mph N/A   Clear